Regional Weather Roundup
Issued by NWS

Home | Current Version | Previous Version | Graphics & Text | Print | Product List | Glossary On
Versions: 1 2 3 4 5 6 7 8 9 10 11 12 13 14 15 16 17 18 19 20 21 22 23 24 25 26 27 28 29 30 31 32 33 34 35 36 37 38 39 40 41 42 43 44 45 46 47 48 49 50
968
ASUS44 KJAN 292303
RWRMS

MISSISSIPPI HOURLY WEATHER ROUNDUP
NATIONAL WEATHER SERVICE JACKSON MS
500 PM CST THU JAN 29 2015

NOTE: "FAIR: INDICATES FEW OR NO CLOUDS BELOW 12,000 FEET WITH NO
SIGNIFICANT WEATHER AND/OR OBSTRUCTIONS TO VISIBILITY.

MSZ001>002-007>008-010>013-018>021-025>028-034>036-300000-
NORTHWEST MISSISSIPPI

CITY           SKY/WX    TMP DP  RH WIND       PRES   REMARKS
CLARKSDALE     FAIR      55  43  62 N23G31    30.23R
CLEVELAND      FAIR      61  49  65 N17       30.19R
GREENWOOD      PTCLDY    65  46  50 N12       30.16R
GREENVILLE     CLOUDY    64  43  46 N15G23    30.18R
GRENADA        FAIR      61  45  55 NW7       30.16R
OXFORD         FAIR      57  39  51 NW14G21   30.18R
TUNICA         CLOUDY    52  37  58 N15G26    30.25R
$$

MSZ003>006-009-014>017-022>024-029>033-037>039-300000-
NORTHEAST MISSISSIPPI

CITY           SKY/WX    TMP DP  RH WIND       PRES   REMARKS
COLUMBUS AFB   MOCLDY    67  48  50 W10       30.12R
CORINTH        MOCLDY    55  39  54 N16G28    30.16R
GOLDN TRIANGLE PTCLDY    66  48  52 NW7       30.11R
STARKVILLE     FAIR      66  50  55 W8        30.12R
TUPELO         CLOUDY    63  46  54 VRB7G18   30.14R
$$

MSZ040-058-300000-
CENTRAL MISSISSIPPI

CITY           SKY/WX    TMP DP  RH WIND       PRES   REMARKS
JACKSON INTL   MOCLDY    69  50  50 W7        30.15R
JACKSON HAWKNS MOCLDY    69  50  50 W10       30.15R
MERIDIAN KEY   CLEAR     71  48  43 SW7       30.11R
MERIDIAN NAS   PTCLDY    71  49  45 W7        30.11R
RAYMOND        FAIR      70  64  83 W10       30.14R
VICKSBURG      MOCLDY    71  52  50 W6        30.16R
$$

MSZ059>079-300000-
SOUTH MISSISSIPPI

CITY           SKY/WX    TMP DP  RH WIND       PRES   REMARKS
BROOKHAVEN     FAIR      72  46  40 SW12      30.17R
HATTIESBURG    CLEAR     74  51  44 SW8       30.15R
MCCOMB         CLEAR     73  47  39 SW9       30.15S
NATCHEZ        CLOUDY    72  54  53 SW7       30.17S
PINE BELT      CLEAR     72  52  49 SW5       30.15S
$$

MSZ080>082-300000-
COASTAL MISSISSIPPI

CITY           SKY/WX    TMP DP  RH WIND       PRES   REMARKS
BAY ST LOUIS   CLEAR     70  54  56 S7        30.17S
BILOXI         CLEAR     63  56  78 S12       30.18S
PASCAGOULA     CLEAR     65  54  67 S7        30.19S
GULFPORT       CLEAR     65  54  67 S6        30.18S
$$



USA.gov is the U.S. government's official web portal to all federal, state and local government web resources and services.